Zurück zum Katalog

COSMOS 1030 DEB

LostHEO
NORAD 13959·DEBRIS·🇷🇺 Russia

Gestartet Sep 6, 1978 von Plesetsk Cosmodrome

Loading…

Nächste Überflüge (nächste 24 Stunden)

TLE

VeraltetSource: Space-Track

Epoche: Oct 15, 2020, 04:15 UTC

1 13959U 78083G   20289.17721591  .00000595  00000-0  00000-0 0  9996
2 13959  70.6123 131.0765 5329926   1.8532 359.6774  1.99498102284093

Verfolge COSMOS 1030 DEB in Echtzeit mit AllMySat

Download on the App Store